Regional Weather Roundup
Issued by NWS

Home | Current Version | Previous Version | Text Only | Print | Product List | Glossary Off
Versions: 1 2 3 4 5 6 7 8 9 10 11 12 13 14 15 16 17 18 19 20 21 22 23 24 25 26 27 28 29 30 31 32 33 34 35 36 37 38 39 40 41 42 43 44 45 46 47 48 49 50

527
ASUS44 KMEG 202310
RWRTN
TENNESSEE HOURLY STATE WEATHER ROUNDUP
NATIONAL WEATHER SERVICE MEMPHIS TN
600 PM CDT THU JUL 20 2017

TNZ002-004-019-021-049-052-054-088>092-210000-
WEST TENNESSEE

CITY           SKY/WX    TMP DP  RH WIND       PRES   REMARKS
MEMPHIS INTL   PTSUNNY   95  74  50 W9        30.02F HX 105
NWS MEMPHIS      N/A     94 N/A N/A MISG        N/A
JACKSON        MOSUNNY   95  72  47 VRB5      30.03F HX 103
SOMERVILLE       N/A     93  72  49 CALM      30.03S HX 100
COVINGTON      SUNNY     93  75  55 CALM      30.02F HX 104
UNION CITY     SUNNY     91  77  62 SW5       30.01F HX 105
BOLIVAR        SUNNY     93  70  46 NW3       30.03F HX  99
PARIS          SUNNY     90  75  62 SW3       30.02F HX 100
HUNTINGDON     MOSUNNY   90  75  62 SE3       30.02F HX 100
SELMER         MOSUNNY   90  75  62 CALM      30.03F HX 100
SAVANNAH       SUNNY     91  75  59 N5        30.02F HX 102
$$

TNZ008-025-027-028-033-062-065-066-210000-
NORTH MIDDLE TENNESSEE

CITY           SKY/WX    TMP DP  RH WIND       PRES   REMARKS
NASHVILLE      CLOUDY    92  71  50 CALM      30.03F HX  98
PORTLAND       SUNNY     90  73  58 VRB5      30.02F HX  98
CLARKSVILLE    CLOUDY    89  72  56 SW7       30.02F HX  96
SMYRNA         MOSUNNY   93  71  48 CALM      30.02F HX 100
COOKEVILLE     SUNNY     88  77  70 CALM      30.05F HX 100
GALLATIN       SUNNY     93  73  52 CALM      30.04F HX 102
CROSSVILLE     MOSUNNY   81  72  74 NW5       30.11F
$$

TNZ061-075-076-078-094-096-097-210000-
SOUTH MIDDLE TENNESSEE

CITY           SKY/WX    TMP DP  RH WIND       PRES   REMARKS
FAYETTEVILLE   MOSUNNY   91  72  52 N7        30.05F HX  98
TULLAHOMA      SUNNY     88  70  55 N5        30.08S HX  92
WINCHESTER     SUNNY     90  72  55 N5        30.05F HX  96
MCMINNVILLE    SUNNY     90  75  62 CALM      30.06F HX 100
COLUMBIA       SUNNY     91  72  52 CALM      30.02F HX  98
$$

TNZ017-018-042-046-047-210000-
NORTHEAST TENNESSEE

CITY           SKY/WX    TMP DP  RH WIND       PRES   REMARKS
TRI CITIES     PTSUNNY   89  67  47 NW6       30.05F HX  92
ELIZABETHTON   PTSUNNY   88  68  51 W7        30.05F HX  91
$$

TNZ012-013-036-069-073-074-210000-
CENTRAL EAST TENNESSEE

CITY           SKY/WX    TMP DP  RH WIND       PRES   REMARKS
KNOXVILLE      PTSUNNY   90  66  45 N7        30.02F HX  92
OAK RIDGE      CLOUDY    91  68  46 CALM      30.05F HX  95
DOWNTOWN KNOXV SUNNY     88  72  58 CALM      30.01F HX  94
GATLINBURG     SUNNY     90  64  43 N6        30.02F HX  91
MORRISTOWN     SUNNY     88  68  51 CALM      30.04F HX  91
JACKSBORO      MOSUNNY   86  72  62 CALM      30.08S HX  92
$$

TNZ083-085-099-210000-
SOUTHEAST TENNESSEE

CITY           SKY/WX    TMP DP  RH WIND       PRES   REMARKS
CHATTANOOGA    PTSUNNY   90  71  53 NE6       30.03F HX  96
$$

SKY/WX REPORTED AS FAIR MEANS FEW OR NO CLOUDS BELOW
12 THOUSAND FEET.





USA.gov is the U.S. government's official web portal to all federal, state and local government web resources and services.